Main page
METAR-TAF:

METAR-TAF

Airports :

Lavan Airport

Lavan Island, Iran

latitude: 26-48-37N, longitude: 53-21-22E, elevation: 23 m

Current weather observation

The report was made 3 hours and 6 minutes ago, at 14:00 UTC
Wind 4 kt from the South/Southwest
Temperature 31°C
Humidity 55%
Pressure 1009 hPa
Visibility: 8000 m

METAR: OIBV 181400Z 21004KT 8000 NSC 31/21 Q1009

Time: 20:36 (17:06 UTC)


TAF: missing

Weather observations and forecasts of more than 4000 airports (METAR and TAF reports).

The available stations are represented by yellow and red dots on the map.

Hover mouse over dot to see the name of the station.

Then click to see weather observations and forecasts.

To change the map : click on the green buttons with a black cross to zoom in, on the green button with a dash to zoom out, or on the green arrows for adjacent maps.


METAR-TAF: